GFSNE_prec_snow_222.txt.gz
Snowfall_Accumulation
0.0 0.0 0.0 0.0 0.0 0.0 0.0 0.0 0.0 0.0 0.0 0.0 0.0 0.0 0.0 0.0 0.0 0.0 0.0 0.0 0.0 0.0 0.0 0.0 0.0 0.0 0.0 0.0 0.0 0.0 0.0 0.0 0.0 0.0 0.0 0.0 0.0 0.0
0.0 0.0 0.0 0.0 0.0 0.0 0.0 0.0 0.0 0.0 0.0 0.0 0.0 0.0 0.0 0.0 0.0 0.0 0.0 0.0 0.0 0.0 0.0 0.0 0.0 0.0 0.0 0.0 0.0 0.0 0.0 0.0 0.0 0.0 0.0 0.0 0.0 0.0
0.0 0.0 0.0 0.0 0.0 0.0 0.0 0.0 0.0 0.0 0.0 0.2 0.1 0.0 0.0 0.0 0.0 0.0 0.0 0.0 0.0 0.0 0.0 0.0 0.0 0.0 0.0 0.0 0.0 0.0 0.0 0.0 0.0 0.0 0.0 0.0 0.0 0.0
0.0 0.0 0.0 0.0 0.0 0.0 0.0 0.0 0.0 0.1 0.1 0.1 0.0 0.6 0.6 0.4 0.7 0.1 0.0 0.0 0.0 0.0 0.0 0.0 0.0 0.0 0.0 0.0 0.0 0.0 0.0 0.0 0.0 0.0 0.0 0.0 0.0 0.0
0.0 0.0 0.0 0.0 0.0 0.0 0.1 0.0 0.4 0.5 0.3 0.1 0.5 1.1 2.0 1.6 3.3 2.9 2.1 0.0 0.0 0.0 0.0 0.0 0.0 0.0 0.0 0.0 0.1 0.0 0.1 0.1 0.0 0.0 0.0 0.0 0.0 0.0
0.0 0.2 0.1 0.6 0.7 0.0 1.2 1.2 0.8 1.3 0.8 1.1 0.3 1.5 1.4 0.8 0.6 0.7 0.5 0.3 0.0 0.0 0.0 0.0 0.0 0.0 0.0 0.0 0.0 0.0 0.0 0.0 0.0 0.0 0.0 0.0 0.0 0.0
0.0 0.6 0.4 0.1 1.4 3.4 2.5 1.5 1.6 1.3 1.6 1.5 1.1 0.4 0.4 0.3 0.3 0.2 0.1 0.0 0.2 0.0 0.0 0.0 0.0 0.0 0.0 0.0 0.0 0.0 0.0 0.0 0.1 0.1 0.3 0.4 0.0 0.0
0.0 1.6 1.5 2.8 1.2 0.0 0.0 0.0 0.1 1.3 1.3 1.0 0.5 0.1 0.0 0.0 0.0 0.1 0.3 0.8 1.1 0.3 0.6 0.2 0.0 0.3 0.0 0.0 0.0 0.0 0.0 0.0 0.1 0.0 0.2 0.5 0.4 0.2
2.1 2.1 0.7 1.1 0.8 0.7 0.2 0.2 0.8 0.4 0.3 0.2 0.0 0.0 0.0 0.0 0.6 0.9 1.7 2.6 1.0 0.4 0.4 0.6 0.1 0.0 0.0 0.0 0.0 0.0 0.0 0.0 0.0 0.2 0.3 0.3 0.3 0.3
1.5 0.8 0.4 0.0 0.0 0.2 0.2 0.7 0.1 0.0 0.0 0.0 0.0 0.1 0.2 0.2 0.6 1.5 2.1 2.3 0.7 0.0 0.1 0.6 0.0 0.0 0.0 0.0 0.0 0.0 0.0 0.0 0.0 0.2 0.2 0.3 0.3 0.4
0.4 0.0 0.0 0.0 0.0 0.1 0.4 0.2 0.0 0.0 0.0 0.0 0.1 0.1 0.0 0.0 0.0 0.4 1.3 1.5 1.0 0.0 0.0 0.3 0.0 0.0 0.0 0.0 0.0 0.0 0.0 0.0 0.0 0.0 0.1 0.1 0.2 0.3
0.1 0.0 0.0 0.0 0.1 0.4 0.5 0.2 0.6 0.1 0.3 0.2 0.1 0.0 0.0 0.0 0.0 0.0 0.3 3.5 2.4 2.0 0.0 1.9 0.4 0.9 3.3 0.0 0.0 0.0 0.0 0.0 0.0 0.0 0.1 0.1 0.2 0.2
0.1 0.1 0.0 0.0 0.3 0.5 0.5 0.4 0.8 0.5 0.3 0.2 0.0 0.0 0.0 0.0 0.0 0.0 0.0 1.7 5.9 4.8 0.0 5.3 7.3 1.8 6.3 1.8 0.0 0.0 0.0 0.0 0.0 0.0 0.0 0.0 0.3 0.5
0.2 0.0 0.0 0.3 0.4 0.4 0.2 0.5 0.6 0.6 0.5 0.2 0.1 0.0 0.0 0.0 0.0 0.1 0.2 0.1 0.3 2.1 0.3 0.6 12.9 4.9 8.5 6.8 1.3 0.0 0.3 0.3 1.0 1.3 1.3 0.2 0.1 0.3
0.1 0.0 0.3 0.5 0.5 0.2 0.1 0.2 0.3 0.0 0.1 0.6 0.5 0.2 0.0 0.0 0.0 0.3 0.1 1.5 1.3 0.0 0.0 0.2 4.1 5.4 9.2 10.5 5.1 1.0 0.9 0.3 0.9 1.1 1.6 2.4 2.3 0.8
0.0 0.0 0.4 0.5 0.3 0.1 0.0 0.0 0.0 0.0 0.1 0.9 1.2 0.2 0.1 0.6 2.0 1.8 2.6 2.1 4.0 2.3 1.6 2.6 3.3 5.8 10.3 4.8 5.3 3.9 0.9 2.4 1.0 1.4 2.6 1.8 1.8 2.5
1.0 0.5 0.2 0.0 0.0 0.0 0.0 0.0 0.1 0.1 1.1 0.4 1.8 2.2 1.9 1.9 1.9 1.7 3.4 3.8 6.4 4.3 5.1 3.0 3.0 3.8 3.8 4.8 7.5 1.6 1.6 1.6 1.1 2.6 3.1 2.3 1.3 3.2
1.0 0.9 1.1 0.2 0.3 0.3 0.3 0.4 0.6 0.8 0.9 3.3 3.9 3.6 4.6 4.4 3.6 5.2 5.6 6.8 7.2 3.6 5.5 6.1 6.7 9.7 8.9 7.6 2.1 5.0 4.0 2.0 2.8 1.6 2.5 5.5 3.5 1.1
0.9 0.9 0.7 0.8 1.0 0.8 1.3 1.7 2.4 1.2 2.0 4.6 6.4 6.3 7.3 6.3 7.4 6.5 4.7 5.8 6.0 3.9 5.3 6.5 9.0 13.4 15.9 6.8 2.5 2.5 6.6 6.7 4.1 3.7 3.2 4.5 4.9 2.6
0.2 0.2 0.4 0.3 1.4 2.4 2.0 3.4 3.2 3.6 4.6 5.1 5.7 5.7 7.6 9.3 8.2 6.3 5.0 6.8 6.9 4.8 4.5 5.9 6.5 9.5 17.5 11.7 9.4 1.8 3.5 7.4 9.3 6.4 3.9 2.6 3.7 0.2
0.3 0.7 0.4 1.2 2.1 3.1 3.9 5.1 5.3 6.0 5.9 7.1 6.1 5.6 5.7 9.7 8.3 4.9 6.1 4.4 6.7 6.7 7.2 3.1 2.0 4.8 9.0 14.7 15.3 5.5 4.8 4.4 4.6 11.3 8.4 8.8 4.2 3.0
0.7 0.8 1.1 2.2 2.8 4.5 5.0 5.9 6.2 5.1 5.3 4.6 4.1 4.6 5.2 7.9 9.2 7.1 6.3 8.3 5.1 3.9 4.3 3.1 4.9 6.5 8.9 12.5 8.4 3.6 3.2 3.1 4.7 2.2 3.1 10.0 16.8 14.9
2.1 2.7 1.8 3.9 4.3 5.6 6.1 6.5 5.4 4.1 3.7 4.7 4.7 4.6 5.9 8.5 5.3 5.7 6.7 6.6 6.2 7.4 5.1 5.7 5.0 5.1 6.5 6.6 7.0 6.1 4.2 3.7 3.1 3.5 3.9 3.0 2.9 2.1

GFSNE_prec_snow_228.txt.gz
Snowfall_Accumulation
0.0 0.0 0.0 0.0 0.0 0.0 0.0 0.0 0.0 0.0 0.0 0.0 0.0 0.0 0.0 0.0 0.0 0.0 0.0 0.0 0.0 0.0 0.0 0.0 0.0 0.0 0.0 0.0 0.0 0.0 0.0 0.0 0.0 0.0 0.0 0.0 0.0 0.0
0.0 0.0 0.0 0.0 0.0 0.0 0.0 0.0 0.0 0.0 0.0 0.0 0.0 0.0 0.0 0.0 0.0 0.0 0.0 0.0 0.0 0.0 0.0 0.0 0.0 0.0 0.0 0.0 0.0 0.0 0.0 0.0 0.0 0.0 0.0 0.0 0.0 0.0
0.0 0.0 0.0 0.0 0.0 0.0 0.0 0.0 0.0 0.0 0.0 0.2 0.1 0.0 0.0 0.0 0.0 0.0 0.0 0.0 0.0 0.0 0.0 0.0 0.0 0.0 0.0 0.0 0.0 0.0 0.0 0.0 0.0 0.0 0.0 0.0 0.0 0.0
0.0 0.0 0.0 0.0 0.0 0.0 0.0 0.0 0.0 0.1 0.1 0.1 0.0 0.6 0.6 0.4 0.7 0.1 0.0 0.0 0.0 0.0 0.0 0.0 0.0 0.0 0.0 0.0 0.0 0.0 0.0 0.0 0.0 0.0 0.0 0.0 0.0 0.0
0.0 0.0 0.0 0.0 0.0 0.0 0.1 0.0 0.4 0.5 0.3 0.1 0.5 1.1 2.0 1.6 3.3 2.9 2.1 0.0 0.0 0.0 0.0 0.0 0.0 0.0 0.0 0.0 0.1 0.0 0.1 0.1 0.0 0.0 0.0 0.0 0.0 0.0
0.0 0.2 0.1 0.6 0.7 0.0 1.2 1.2 0.8 1.3 0.8 1.1 0.3 1.5 1.4 0.8 0.6 0.7 0.5 0.3 0.0 0.0 0.0 0.0 0.0 0.0 0.0 0.0 0.0 0.0 0.0 0.0 0.0 0.0 0.0 0.0 0.0 0.0
0.0 0.6 0.4 0.1 1.4 3.4 2.5 1.5 1.6 1.3 1.6 1.5 1.1 0.4 0.4 0.3 0.3 0.2 0.1 0.0 0.2 0.0 0.0 0.0 0.0 0.0 0.0 0.0 0.0 0.0 0.0 0.0 0.1 0.1 0.3 0.4 0.0 0.0
0.0 1.6 1.5 2.8 1.2 0.0 0.0 0.0 0.1 1.3 1.3 1.0 0.5 0.1 0.0 0.0 0.0 0.1 0.3 0.8 1.1 0.3 0.6 0.2 0.0 0.3 0.0 0.0 0.0 0.0 0.0 0.0 0.1 0.0 0.2 0.5 0.4 0.2
2.1 2.1 0.7 1.1 0.8 0.7 0.2 0.2 0.8 0.4 0.3 0.2 0.0 0.0 0.0 0.0 0.6 0.9 1.7 2.6 1.0 1.8 0.9 1.6 0.4 0.1 0.0 0.0 0.0 0.0 0.0 0.0 0.0 0.2 0.3 0.3 0.3 0.3
1.5 0.8 0.4 0.0 0.0 0.2 0.2 0.7 0.1 0.0 0.0 0.0 0.0 0.1 0.2 0.2 0.6 1.5 2.1 3.9 2.3 1.1 0.3 0.7 0.0 0.0 0.0 0.0 0.0 0.0 0.0 0.0 0.0 0.2 0.2 0.3 0.3 0.4
0.4 0.0 0.0 0.0 0.0 0.1 0.4 0.2 0.0 0.0 0.0 0.0 0.1 0.1 0.0 0.0 0.0 0.4 1.7 1.9 1.5 0.0 0.0 0.3 0.0 0.0 0.0 0.0 0.0 0.0 0.0 0.0 0.0 0.0 0.1 0.1 0.2 0.3
0.1 0.0 0.0 0.0 0.1 0.4 0.5 0.2 0.6 0.1 0.3 0.2 0.1 0.0 0.0 0.0 0.0 0.0 0.3 3.5 2.4 2.0 0.0 1.9 0.4 0.9 3.3 0.0 0.0 0.0 0.0 0.0 0.0 0.0 0.1 0.1 0.2 0.2
0.1 0.1 0.0 0.0 0.3 0.5 0.5 0.4 0.8 0.5 0.3 0.2 0.0 0.0 0.0 0.0 0.0 0.0 0.0 1.7 5.9 4.8 0.0 5.3 7.3 1.8 6.3 1.8 0.0 0.0 0.0 0.0 0.0 0.0 0.0 0.0 0.3 0.5
0.2 0.0 0.0 0.3 0.4 0.4 0.2 0.5 0.6 0.6 0.5 0.2 0.1 0.0 0.0 0.0 0.0 0.1 0.2 0.1 0.3 2.1 0.3 0.6 12.9 4.9 8.5 6.8 1.3 0.0 0.3 0.3 1.0 1.3 1.3 0.2 0.1 0.3
0.1 0.0 0.3 0.5 0.5 0.2 0.1 0.2 0.3 0.0 0.1 0.6 0.5 0.2 0.0 0.0 0.0 0.3 0.1 1.5 1.3 0.0 0.0 0.2 4.1 5.4 9.2 10.5 5.1 1.0 0.9 0.3 0.9 1.1 1.6 2.4 2.3 0.8
0.0 0.0 0.4 0.5 0.3 0.1 0.0 0.0 0.0 0.0 0.1 0.9 1.2 0.2 0.1 0.6 2.0 1.8 2.6 2.1 4.0 2.3 1.6 2.6 3.3 5.8 10.3 4.8 5.3 3.9 0.9 2.4 1.0 1.4 2.6 1.8 1.8 2.5
1.0 0.5 0.2 0.0 0.0 0.0 0.0 0.0 0.1 0.1 1.1 0.4 1.8 2.2 1.9 1.9 1.9 1.7 3.4 3.8 6.4 4.3 5.1 3.0 3.0 3.8 3.8 4.8 7.5 1.6 1.6 1.6 1.1 2.6 3.1 2.3 1.3 3.2
1.0 0.9 1.1 0.2 0.3 0.3 0.3 0.4 0.6 0.8 0.9 3.3 3.9 3.6 4.6 4.4 3.6 5.2 5.6 6.8 7.2 3.6 5.5 6.1 6.7 9.7 8.9 7.6 2.1 5.0 4.0 2.0 2.8 1.6 2.5 5.5 3.5 1.1
0.9 0.9 0.7 0.8 1.0 0.8 1.3 1.7 2.4 1.2 2.0 4.6 6.4 6.3 7.3 6.3 7.4 6.5 4.7 5.8 6.0 3.9 5.3 6.5 9.1 13.6 16.2 6.9 2.5 2.5 6.7 6.7 4.1 3.7 3.2 4.5 4.9 2.6
0.2 0.2 0.4 0.3 1.4 2.4 2.0 3.4 3.2 3.6 4.6 5.1 5.7 5.7 7.6 9.3 8.2 6.3 5.0 6.8 7.0 4.8 4.5 5.9 6.6 9.7 17.9 12.0 9.5 1.8 3.5 7.4 9.3 6.4 3.9 2.6 3.7 0.2
0.3 0.7 0.4 1.2 2.1 3.1 3.9 5.1 5.3 6.0 5.9 7.1 6.1 5.6 5.7 9.7 8.3 4.9 6.1 4.4 6.7 6.7 7.2 3.1 2.0 4.8 9.0 14.7 15.4 5.5 4.8 4.4 4.6 11.3 8.4 8.8 4.3 3.0
0.7 0.8 1.1 2.2 2.8 4.5 5.0 5.9 6.2 5.1 5.3 4.6 4.1 4.6 5.2 7.9 9.2 7.1 6.3 8.3 5.1 3.9 4.3 3.1 4.9 6.5 8.9 12.5 8.5 3.6 3.2 3.1 4.7 2.2 3.1 10.0 16.9 15.1
2.1 2.7 1.8 3.9 4.3 5.6 6.1 6.5 5.4 4.1 3.7 4.7 4.7 4.6 5.9 8.5 5.3 5.7 6.7 6.6 6.2 7.4 5.1 5.7 5.0 5.1 6.5 6.6 7.0 6.1 4.2 3.7 3.1 3.5 3.9 3.0 2.9 2.1

GFSNE_prec_snow_234.txt.gz
Snowfall_Accumulation
0.0 0.0 0.0 0.0 0.0 0.0 0.0 0.0 0.0 0.0 0.0 0.0 0.0 0.0 0.0 0.0 0.0 0.0 0.0 0.0 0.0 0.0 0.0 0.0 0.0 0.0 0.0 0.0 0.0 0.0 0.0 0.0 0.0 0.0 0.0 0.0 0.0 0.0
0.0 0.0 0.0 0.0 0.0 0.0 0.0 0.0 0.0 0.0 0.0 0.0 0.0 0.0 0.0 0.0 0.0 0.0 0.0 0.0 0.0 0.0 0.0 0.0 0.0 0.0 0.0 0.0 0.0 0.0 0.0 0.0 0.0 0.0 0.0 0.0 0.0 0.0
0.0 0.0 0.0 0.0 0.0 0.0 0.0 0.0 0.0 0.0 0.0 0.2 0.1 0.0 0.0 0.0 0.0 0.0 0.0 0.0 0.0 0.0 0.0 0.0 0.0 0.0 0.0 0.0 0.0 0.0 0.0 0.0 0.0 0.0 0.0 0.0 0.0 0.0
0.0 0.0 0.0 0.0 0.0 0.0 0.0 0.0 0.0 0.1 0.1 0.1 0.0 0.6 0.6 0.4 0.7 0.1 0.0 0.0 0.0 0.0 0.0 0.0 0.0 0.0 0.0 0.0 0.0 0.0 0.0 0.0 0.0 0.0 0.0 0.0 0.0 0.0
0.0 0.0 0.0 0.0 0.0 0.0 0.1 0.0 0.4 0.5 0.3 0.1 0.5 1.1 2.0 1.6 3.3 2.9 2.1 0.0 0.0 0.0 0.0 0.0 0.0 0.0 0.0 0.0 0.1 0.0 0.1 0.1 0.0 0.0 0.0 0.0 0.0 0.0
0.0 0.2 0.1 0.6 0.7 0.0 1.2 1.2 0.8 1.3 0.8 1.1 0.3 1.5 1.4 0.8 0.6 0.7 0.5 0.3 0.0 0.0 0.0 0.0 0.0 0.0 0.0 0.0 0.0 0.0 0.0 0.0 0.0 0.0 0.0 0.0 0.0 0.0
0.0 0.6 0.4 0.1 1.4 3.4 2.5 1.5 1.6 1.3 1.6 1.5 1.1 0.4 0.4 0.3 0.3 0.2 0.1 0.0 0.2 0.0 0.0 0.0 0.0 0.0 0.0 0.0 0.0 0.0 0.0 0.0 0.1 0.1 0.3 0.4 0.0 0.0
0.0 1.6 1.5 2.8 1.2 0.0 0.0 0.0 0.1 1.3 1.3 1.0 0.5 0.1 0.0 0.0 0.0 0.1 0.3 0.8 1.1 0.3 0.6 0.2 0.0 0.3 0.0 0.0 0.0 0.0 0.0 0.0 0.1 0.0 0.2 0.5 0.4 0.2
2.1 2.1 0.7 1.1 0.8 0.7 0.2 0.2 0.8 0.4 0.3 0.2 0.0 0.0 0.0 0.0 0.6 0.9 1.7 2.6 2.2 3.8 2.9 3.4 2.0 2.5 0.0 0.0 0.0 0.0 0.0 0.0 0.0 0.2 0.3 0.3 0.3 0.3
1.5 0.8 0.4 0.0 0.0 0.2 0.2 0.7 0.1 0.0 0.0 0.0 0.0 0.1 0.2 0.2 0.6 1.5 2.1 4.5 3.2 2.2 1.4 1.3 0.5 0.3 0.1 0.4 0.0 0.0 0.0 0.0 0.0 0.2 0.2 0.3 0.3 0.4
0.4 0.0 0.0 0.0 0.0 0.1 0.4 0.2 0.0 0.0 0.0 0.0 0.1 0.1 0.0 0.0 0.0 0.4 1.7 1.9 1.6 0.0 0.0 0.4 0.1 0.0 0.0 0.0 0.0 0.0 0.0 0.0 0.0 0.0 0.1 0.1 0.2 0.3
0.1 0.0 0.0 0.0 0.1 0.4 0.5 0.2 0.6 0.1 0.3 0.2 0.1 0.0 0.0 0.0 0.0 0.0 0.3 3.5 2.4 2.0 0.0 1.9 0.4 0.9 3.3 0.0 0.0 0.0 0.0 0.0 0.0 0.0 0.1 0.1 0.2 0.2
0.1 0.1 0.0 0.0 0.3 0.5 0.5 0.4 0.8 0.5 0.3 0.2 0.0 0.0 0.0 0.0 0.0 0.0 0.0 1.7 5.9 4.8 0.0 5.3 7.3 1.8 6.3 1.8 0.0 0.0 0.0 0.0 0.0 0.0 0.0 0.0 0.3 0.5
0.2 0.0 0.0 0.3 0.4 0.4 0.2 0.5 0.6 0.6 0.5 0.2 0.1 0.0 0.0 0.0 0.0 0.1 0.2 0.1 0.3 2.1 0.3 0.6 12.9 4.9 8.5 6.8 1.3 0.0 0.3 0.3 1.0 1.3 1.3 0.2 0.1 0.3
0.1 0.0 0.3 0.5 0.5 0.2 0.1 0.2 0.3 0.0 0.1 0.6 0.5 0.2 0.0 0.0 0.0 0.3 0.1 1.5 1.3 0.0 0.0 0.2 4.1 5.4 9.2 10.5 5.1 1.0 0.9 0.3 0.9 1.1 1.6 2.4 2.3 0.8
0.0 0.0 0.4 0.5 0.3 0.1 0.0 0.0 0.0 0.0 0.1 0.9 1.2 0.2 0.1 0.6 2.0 1.8 2.6 2.1 4.0 2.3 1.6 2.6 3.3 5.8 10.3 4.8 5.3 3.9 0.9 2.4 1.0 1.4 2.6 1.8 1.8 2.5
1.0 0.5 0.2 0.0 0.0 0.0 0.0 0.0 0.1 0.1 1.1 0.4 1.8 2.2 1.9 1.9 1.9 1.7 3.4 3.8 6.4 4.3 5.1 3.0 3.0 3.8 3.8 4.8 7.5 1.6 1.6 1.6 1.1 2.6 3.1 2.3 1.3 3.2
1.0 0.9 1.1 0.2 0.3 0.3 0.3 0.4 0.6 0.8 0.9 3.3 3.9 3.6 4.6 4.4 3.6 5.2 5.6 6.8 7.2 3.6 5.5 6.1 6.7 9.7 8.9 7.6 2.1 5.0 4.0 2.0 2.8 1.6 2.5 5.5 3.5 1.1
0.9 0.9 0.7 0.8 1.0 0.8 1.3 1.7 2.4 1.2 2.0 4.6 6.4 6.3 7.3 6.3 7.4 6.5 4.7 5.8 6.0 3.9 5.3 6.5 9.1 13.6 16.2 6.9 2.5 2.5 6.7 6.7 4.1 3.7 3.2 4.5 4.9 2.6
0.2 0.2 0.4 0.3 1.4 2.4 2.0 3.4 3.2 3.6 4.6 5.1 5.7 5.7 7.6 9.3 8.2 6.3 5.0 6.8 7.0 4.8 4.5 5.9 6.6 9.7 18.0 12.1 9.6 1.8 3.5 7.4 9.3 6.4 3.9 2.6 3.7 0.2
0.3 0.7 0.4 1.2 2.1 3.1 3.9 5.1 5.3 6.0 5.9 7.1 6.1 5.6 5.7 9.7 8.3 4.9 6.1 4.4 6.7 6.7 7.2 3.1 2.0 4.8 9.0 14.7 15.4 5.5 4.8 4.4 4.6 11.3 8.4 9.0 4.3 3.0
0.7 0.8 1.1 2.2 2.8 4.5 5.0 5.9 6.2 5.1 5.3 4.6 4.1 4.6 5.2 7.9 9.2 7.1 6.3 8.3 5.1 3.9 4.4 3.1 4.9 6.5 8.9 12.5 8.5 3.6 3.2 3.1 4.7 2.2 3.1 10.0 17.1 15.3
2.1 2.7 1.8 3.9 4.3 5.6 6.1 6.5 5.4 4.1 3.7 4.7 4.7 4.6 5.9 8.5 5.3 5.7 6.8 6.6 6.2 7.4 5.1 5.7 5.0 5.1 6.5 6.6 7.0 6.1 4.2 3.7 3.1 3.5 3.9 3.0 2.9 2.1

GFSNE_prec_snow_240.txt.gz
Snowfall_Accumulation
0.0 0.0 0.0 0.0 0.0 0.0 0.0 0.0 0.0 0.0 0.0 0.0 0.0 0.0 0.0 0.0 0.0 0.0 0.0 0.0 0.0 0.0 0.0 0.0 0.0 0.0 0.0 0.0 0.0 0.0 0.0 0.0 0.0 0.0 0.0 0.0 0.0 0.0
0.0 0.0 0.0 0.0 0.0 0.0 0.0 0.0 0.0 0.0 0.0 0.0 0.0 0.0 0.0 0.0 0.0 0.0 0.0 0.0 0.0 0.0 0.0 0.0 0.0 0.0 0.0 0.0 0.0 0.0 0.0 0.0 0.0 0.0 0.0 0.0 0.0 0.0
0.0 0.0 0.0 0.0 0.0 0.0 0.0 0.0 0.0 0.0 0.0 0.2 0.1 0.0 0.0 0.0 0.0 0.0 0.0 0.0 0.0 0.0 0.0 0.0 0.0 0.0 0.0 0.0 0.0 0.0 0.0 0.0 0.0 0.0 0.0 0.0 0.0 0.0
0.0 0.0 0.0 0.0 0.0 0.0 0.0 0.0 0.0 0.1 0.1 0.1 0.0 0.6 0.6 0.4 0.7 0.1 0.0 0.0 0.0 0.0 0.0 0.0 0.0 0.0 0.0 0.0 0.0 0.0 0.0 0.0 0.0 0.0 0.0 0.0 0.0 0.0
0.0 0.0 0.0 0.0 0.0 0.0 0.1 0.0 0.4 0.5 0.3 0.1 0.5 1.1 2.0 1.6 3.3 2.9 2.1 0.0 0.0 0.0 0.0 0.0 0.0 0.0 0.0 0.0 0.1 0.0 0.1 0.1 0.0 0.0 0.0 0.0 0.0 0.0
0.0 0.2 0.1 0.6 0.7 0.0 1.2 1.2 0.8 1.3 0.8 1.1 0.3 1.5 1.4 0.8 0.6 0.7 0.5 0.3 0.0 0.0 0.0 0.0 0.0 0.0 0.0 0.0 0.0 0.0 0.0 0.0 0.0 0.0 0.0 0.0 0.0 0.0
0.0 0.6 0.4 0.1 1.4 3.4 2.5 1.5 1.6 1.3 1.6 1.5 1.1 0.4 0.4 0.3 0.3 0.2 0.1 0.0 0.2 0.0 0.0 0.0 0.0 0.0 0.0 0.0 0.0 0.0 0.0 0.0 0.1 0.1 0.3 0.4 0.0 0.0
0.0 1.6 1.5 2.8 1.2 0.0 0.0 0.0 0.1 1.3 1.3 1.0 0.5 0.1 0.0 0.0 0.0 0.1 0.3 0.8 1.1 0.3 0.6 0.2 0.0 0.3 0.0 0.0 0.0 0.0 0.0 0.0 0.1 0.0 0.2 0.5 0.4 0.2
2.1 2.1 0.7 1.1 0.8 0.7 0.2 0.2 0.8 0.4 0.3 0.2 0.0 0.0 0.0 0.0 0.6 0.9 1.7 2.6 2.2 3.8 2.9 3.4 2.0 2.5 0.0 0.0 0.0 0.0 0.0 0.0 0.0 0.2 0.3 0.3 0.3 0.3
1.5 0.8 0.4 0.0 0.0 0.2 0.2 0.7 0.1 0.0 0.0 0.0 0.0 0.1 0.2 0.2 0.6 1.5 2.1 4.5 3.2 2.2 1.4 1.3 0.5 0.3 0.1 0.4 0.0 0.0 0.0 0.0 0.0 0.2 0.2 0.3 0.3 0.4
0.4 0.0 0.0 0.0 0.0 0.1 0.4 0.2 0.0 0.0 0.0 0.0 0.1 0.1 0.0 0.0 0.0 0.4 1.7 1.9 1.6 0.0 0.0 0.4 0.1 0.0 0.0 0.0 0.0 0.0 0.0 0.0 0.0 0.0 0.1 0.1 0.2 0.3
0.1 0.0 0.0 0.0 0.1 0.4 0.5 0.2 0.6 0.1 0.3 0.2 0.1 0.0 0.0 0.0 0.0 0.0 0.3 3.5 2.4 2.0 0.0 1.9 0.4 0.9 3.3 0.0 0.0 0.0 0.0 0.0 0.0 0.0 0.1 0.1 0.2 0.2
0.1 0.1 0.0 0.0 0.3 0.5 0.5 0.4 0.8 0.5 0.3 0.2 0.0 0.0 0.0 0.0 0.0 0.0 0.0 1.7 5.9 4.8 0.0 5.3 7.3 1.8 6.3 1.8 0.0 0.0 0.0 0.0 0.0 0.0 0.0 0.0 0.3 0.5
0.2 0.0 0.0 0.3 0.4 0.4 0.2 0.5 0.6 0.6 0.5 0.2 0.1 0.0 0.0 0.0 0.0 0.1 0.2 0.1 0.3 2.1 0.3 0.6 12.9 4.9 8.5 6.8 1.3 0.0 0.3 0.3 1.0 1.3 1.3 0.2 0.1 0.3
0.1 0.0 0.3 0.5 0.5 0.2 0.1 0.2 0.3 0.0 0.1 0.6 0.5 0.2 0.0 0.0 0.0 0.3 0.1 1.5 1.3 0.0 0.0 0.2 4.1 5.4 9.2 10.5 5.1 1.0 0.9 0.3 0.9 1.1 1.6 2.4 2.3 0.8
0.0 0.0 0.4 0.5 0.3 0.1 0.0 0.0 0.0 0.0 0.1 0.9 1.2 0.2 0.1 0.6 2.0 1.8 2.6 2.1 4.0 2.3 1.6 2.6 3.3 5.8 10.3 4.8 5.3 3.9 0.9 2.4 1.0 1.4 2.6 1.8 1.8 2.5
1.0 0.5 0.2 0.0 0.0 0.0 0.0 0.0 0.1 0.1 1.1 0.4 1.8 2.2 1.9 1.9 1.9 1.7 3.4 3.8 6.4 4.3 5.1 3.0 3.0 3.8 3.8 4.8 7.5 1.6 1.6 1.6 1.1 2.6 3.1 2.3 1.3 3.2
1.0 0.9 1.1 0.2 0.3 0.3 0.3 0.4 0.6 0.8 0.9 3.3 3.9 3.6 4.6 4.4 3.6 5.2 5.6 6.8 7.2 3.6 5.5 6.1 6.7 9.7 8.9 7.6 2.1 5.0 4.0 2.0 2.8 1.6 2.5 5.5 3.5 1.1
0.9 0.9 0.7 0.8 1.0 0.8 1.3 1.7 2.4 1.2 2.0 4.6 6.4 6.3 7.3 6.3 7.4 6.5 4.7 5.8 6.0 3.9 5.3 6.5 9.1 13.6 16.2 6.9 2.5 2.5 6.7 6.7 4.1 3.7 3.2 4.5 4.9 2.6
0.2 0.2 0.4 0.3 1.4 2.4 2.0 3.4 3.2 3.6 4.6 5.1 5.7 5.7 7.6 9.3 8.2 6.3 5.0 6.8 7.0 4.8 4.5 5.9 6.6 9.7 18.1 12.2 9.7 1.8 3.5 7.4 9.3 6.4 3.9 2.6 3.7 0.2
0.3 0.7 0.4 1.2 2.1 3.1 3.9 5.1 5.3 6.0 5.9 7.1 6.1 5.6 5.7 9.7 8.3 4.9 6.1 4.4 6.7 6.7 7.2 3.1 2.0 4.8 9.0 14.7 15.4 5.5 4.8 4.4 4.6 11.3 8.4 9.1 4.3 3.0
0.7 0.8 1.1 2.2 2.8 4.5 5.0 5.9 6.2 5.1 5.3 4.6 4.1 4.6 5.2 7.9 9.2 7.1 6.3 8.4 5.1 3.9 4.4 3.1 4.9 6.5 8.9 12.5 8.5 3.6 3.2 3.1 4.7 2.2 3.1 10.0 17.1 15.4
2.1 2.7 1.8 3.9 4.3 5.6 6.1 6.5 5.4 4.1 3.7 4.7 4.7 4.6 5.9 8.5 5.3 5.7 6.8 6.6 6.2 7.4 5.1 5.7 5.0 5.1 6.5 6.6 7.0 6.1 4.2 3.7 3.1 3.5 3.9 3.0 2.9 2.1

GFSNE_prec_snow_243.txt.gz
Snowfall_Accumulation
0.0 0.0 0.0 0.0 0.0 0.0 0.0 0.0 0.0 0.0 0.0 0.0 0.0 0.0 0.0 0.0 0.0 0.0 0.0 0.0 0.0 0.0 0.0 0.0 0.0 0.0 0.0 0.0 0.0 0.0 0.0 0.0 0.0 0.0 0.0 0.0 0.0 0.0
0.0 0.0 0.0 0.0 0.0 0.0 0.0 0.0 0.0 0.0 0.0 0.0 0.0 0.0 0.0 0.0 0.0 0.0 0.0 0.0 0.0 0.0 0.0 0.0 0.0 0.0 0.0 0.0 0.0 0.0 0.0 0.0 0.0 0.0 0.0 0.0 0.0 0.0
0.0 0.0 0.0 0.0 0.0 0.0 0.0 0.0 0.0 0.0 0.0 0.2 0.1 0.0 0.0 0.0 0.0 0.0 0.0 0.0 0.0 0.0 0.0 0.0 0.0 0.0 0.0 0.0 0.0 0.0 0.0 0.0 0.0 0.0 0.0 0.0 0.0 0.0
0.0 0.0 0.0 0.0 0.0 0.0 0.0 0.0 0.0 0.1 0.1 0.1 0.0 0.6 0.6 0.4 0.7 0.1 0.0 0.0 0.0 0.0 0.0 0.0 0.0 0.0 0.0 0.0 0.0 0.0 0.0 0.0 0.0 0.0 0.0 0.0 0.0 0.0
0.0 0.0 0.0 0.0 0.0 0.0 0.1 0.0 0.4 0.5 0.3 0.1 0.5 1.1 2.0 1.6 3.3 2.9 2.1 0.0 0.0 0.0 0.0 0.0 0.0 0.0 0.0 0.0 0.1 0.0 0.1 0.1 0.0 0.0 0.0 0.0 0.0 0.0
0.0 0.2 0.1 0.6 0.7 0.0 1.2 1.2 0.8 1.3 0.8 1.1 0.3 1.5 1.4 0.8 0.6 0.7 0.5 0.3 0.0 0.0 0.0 0.0 0.0 0.0 0.0 0.0 0.0 0.0 0.0 0.0 0.0 0.0 0.0 0.0 0.0 0.0
0.0 0.6 0.4 0.1 1.4 3.4 2.5 1.5 1.6 1.3 1.6 1.5 1.1 0.4 0.4 0.3 0.3 0.2 0.1 0.0 0.2 0.0 0.0 0.0 0.0 0.0 0.0 0.0 0.0 0.0 0.0 0.0 0.1 0.1 0.3 0.4 0.0 0.0
0.0 1.6 1.5 2.8 1.2 0.0 0.0 0.0 0.1 1.3 1.3 1.0 0.5 0.1 0.0 0.0 0.0 0.1 0.3 0.8 1.2 0.3 0.6 0.2 0.0 0.3 0.0 0.0 0.0 0.0 0.0 0.0 0.1 0.0 0.2 0.5 0.4 0.2
2.1 2.1 0.7 1.1 0.8 0.7 0.2 0.2 0.8 0.4 0.3 0.2 0.0 0.0 0.0 0.0 0.6 0.9 1.7 2.6 2.2 3.8 2.9 3.4 2.0 2.5 0.0 0.0 0.0 0.0 0.0 0.0 0.0 0.2 0.3 0.3 0.3 0.3
1.5 0.8 0.4 0.0 0.0 0.2 0.2 0.7 0.1 0.0 0.0 0.0 0.0 0.1 0.2 0.2 0.6 1.5 2.1 4.5 3.2 2.2 1.4 1.3 0.5 0.3 0.1 0.4 0.0 0.0 0.0 0.0 0.0 0.2 0.2 0.3 0.3 0.4
0.4 0.0 0.0 0.0 0.0 0.1 0.4 0.2 0.0 0.0 0.0 0.0 0.1 0.1 0.0 0.0 0.0 0.4 1.7 1.9 1.6 0.0 0.0 0.4 0.1 0.0 0.0 0.0 0.0 0.0 0.0 0.0 0.0 0.0 0.1 0.1 0.2 0.3
0.1 0.0 0.0 0.0 0.1 0.4 0.5 0.2 0.6 0.1 0.3 0.2 0.1 0.0 0.0 0.0 0.0 0.0 0.3 3.5 2.4 2.0 0.0 1.9 0.4 0.9 3.3 0.0 0.0 0.0 0.0 0.0 0.0 0.0 0.1 0.1 0.2 0.2
0.1 0.1 0.0 0.0 0.3 0.5 0.5 0.4 0.8 0.5 0.3 0.2 0.0 0.0 0.0 0.0 0.0 0.0 0.0 1.7 5.9 4.8 0.0 5.3 7.3 1.8 6.3 1.8 0.0 0.0 0.0 0.0 0.0 0.0 0.0 0.0 0.3 0.5
0.2 0.0 0.0 0.3 0.4 0.4 0.2 0.5 0.6 0.6 0.5 0.2 0.1 0.0 0.0 0.0 0.0 0.1 0.2 0.1 0.3 2.1 0.3 0.6 12.9 4.9 8.5 6.8 1.3 0.0 0.3 0.3 1.0 1.3 1.3 0.2 0.1 0.3
0.1 0.0 0.3 0.5 0.5 0.2 0.1 0.2 0.3 0.0 0.1 0.6 0.5 0.2 0.0 0.0 0.0 0.3 0.1 1.5 1.3 0.0 0.0 0.2 4.1 5.4 9.2 10.5 5.1 1.0 0.9 0.3 0.9 1.1 1.6 2.4 2.3 0.8
0.0 0.0 0.4 0.5 0.3 0.1 0.0 0.0 0.0 0.0 0.1 0.9 1.2 0.2 0.1 0.6 2.0 1.8 2.6 2.1 4.0 2.3 1.6 2.6 3.3 5.8 10.3 4.8 5.3 3.9 0.9 2.4 1.0 1.4 2.6 1.8 1.8 2.5
1.0 0.5 0.2 0.0 0.0 0.0 0.0 0.0 0.1 0.1 1.1 0.4 1.8 2.2 1.9 1.9 1.9 1.7 3.4 3.8 6.4 4.3 5.1 3.0 3.0 3.8 3.8 4.8 7.5 1.6 1.6 1.6 1.1 2.6 3.1 2.3 1.3 3.2
1.0 0.9 1.2 0.2 0.3 0.3 0.3 0.4 0.6 0.8 0.9 3.3 3.9 3.6 4.6 4.4 3.6 5.2 5.6 6.8 7.2 3.6 5.5 6.1 6.7 9.7 8.9 7.6 2.1 5.0 4.0 2.0 2.8 1.6 2.5 5.5 3.5 1.1
0.9 0.9 0.7 0.8 1.0 0.8 1.3 1.7 2.4 1.2 2.0 4.6 6.4 6.3 7.3 6.3 7.4 6.5 4.7 5.8 6.0 3.9 5.3 6.5 9.1 13.6 16.2 6.9 2.5 2.5 6.7 6.7 4.1 3.7 3.2 4.5 4.9 2.6
0.2 0.3 0.4 0.3 1.4 2.4 2.0 3.4 3.2 3.6 4.6 5.1 5.7 5.7 7.6 9.3 8.2 6.3 5.0 6.8 7.0 4.8 4.5 5.9 6.6 9.7 18.2 12.3 9.7 1.8 3.5 7.4 9.3 6.4 3.9 2.6 3.7 0.2
0.3 0.7 0.4 1.2 2.1 3.1 3.9 5.1 5.3 6.0 5.9 7.1 6.1 5.6 5.7 9.7 8.3 4.9 6.1 4.4 6.7 6.7 7.2 3.1 2.0 4.8 9.0 14.7 15.4 5.5 4.8 4.4 4.6 11.3 8.4 9.1 4.3 3.0
0.7 0.8 1.1 2.2 2.8 4.5 5.0 5.9 6.2 5.1 5.3 4.6 4.1 4.6 5.2 7.9 9.2 7.1 6.3 8.4 5.1 3.9 4.4 3.1 4.9 6.5 8.9 12.5 8.5 3.6 3.2 3.1 4.7 2.2 3.1 10.0 17.1 15.4
2.1 2.7 1.8 3.9 4.3 5.6 6.1 6.5 5.4 4.1 3.7 4.7 4.7 4.6 5.9 8.5 5.3 5.7 6.8 6.6 6.2 7.4 5.1 5.7 5.0 5.1 6.5 6.6 7.0 6.1 4.2 3.7 3.1 3.5 3.9 3.0 2.9 2.1